Metcalfe, MS

6:24 AM CDT on August 28, 2016 (GMT -0500)
Mid Delta Regional

Weather History for KGLH - October, 2011

Change the Weather History Date:

Thursday, October 27, 2011

  Actual Average Record
Temperature  
Mean Temperature 58 °F 61 °F  
Max Temperature 65 °F 73 °F 89 °F (1927)
Min Temperature 51 °F 49 °F 31 °F (1942)
Degree Days  
Heating Degree Days 7 6  
Month to date heating degree days 91 82  
Since 1 July heating degree days 93 88  
Cooling Degree Days 0 2  
Month to date cooling degree days 57 87  
Year to date cooling degree days 2434 2167  
Growing Degree Days 8 (Base 50)    
Moisture  
Dew Point 52 °F    
Average Humidity 82    
Maximum Humidity 96    
Minimum Humidity 67    
Precipitation  
Precipitation T in 0.11 in 1.92 in (1980)
Month to date precipitation 0.34 3.92  
Year to date precipitation 22.16 41.56  
Sea Level Pressure  
Sea Level Pressure 29.96 in    
Wind  
Wind Speed 13 mph (North)    
Max Wind Speed 26 mph    
Max Gust Speed 32 mph    
Visibility 9 miles    
Events Rain    
T = Trace of Precipitation, MM = Missing Value Source: NWS Daily Summary

Daily Weather History Graph

Daily Weather History Graph

Search for Another Location

Airport or City:

Trip Planner

Search our weather history database for the weather conditions in past years. The results will help you decide how hot, cold, wet, or windy it might be!

Date:

Astronomy

Oct. 27, 2011 Rise Set
Actual Time 7:18 AM CDT 6:17 PM CDT
Civil Twilight 6:52 AM CDT 6:42 PM CDT
Nautical Twilight 6:23 AM CDT 7:11 PM CDT
Astronomical Twilight 5:54 AM CDT 7:40 PM CDT
Moon 8:15 AM CDT (10/27) 6:53 PM CDT (10/27)
Length of Visible Light 11h 49m
Length of Day
10h 58m
New Moon, 1% of the Moon is Illuminated
Oct 27
New Moon
Nov 2
First Quarter
Nov 10
Full
Nov 18
Last Quarter
Nov 25
New

Hourly Weather History & Observations

Time (CDT) Temp. Dew Point Humidity Pressure Visibility Wind Dir Wind Speed Gust Speed Precip Events Conditions
12:53 AM 62.1 °F 51.1 °F 67% 29.90 in 10.0 mi SSW 3.5 mph - N/A   Clear
1:53 AM 57.9 °F 50.0 °F 75% 29.90 in 10.0 mi Calm Calm - N/A   Clear
2:53 AM 59.0 °F 51.8 °F 77% 29.88 in 10.0 mi SSW 5.8 mph - N/A   Clear
3:53 AM 57.9 °F 52.0 °F 81% 29.89 in 10.0 mi SSW 4.6 mph - N/A   Partly Cloudy
4:53 AM 61.0 °F 55.0 °F 81% 29.88 in 10.0 mi SSW 3.5 mph - N/A   Mostly Cloudy
5:53 AM 59.0 °F 55.0 °F 87% 29.89 in 10.0 mi Calm Calm - N/A   Clear
6:53 AM 62.1 °F 57.9 °F 86% 29.89 in 10.0 mi West 3.5 mph - N/A   Overcast
7:53 AM 64.0 °F 59.0 °F 84% 29.92 in 10.0 mi NNW 10.4 mph - N/A   Overcast
8:07 AM 64.4 °F 59.0 °F 83% 29.91 in 10.0 mi NW 9.2 mph - N/A   Overcast
8:31 AM 64.4 °F 60.8 °F 88% 29.91 in 10.0 mi WNW 3.5 mph - 0.00 in   Overcast
8:53 AM 64.9 °F 60.1 °F 84% 29.94 in 10.0 mi WNW 3.5 mph - 0.00 in   Overcast
9:06 AM 64.4 °F 60.8 °F 88% 29.92 in 10.0 mi NW 5.8 mph - N/A   Overcast
9:24 AM 64.4 °F 60.8 °F 88% 29.93 in 10.0 mi NW 11.5 mph - N/A   Overcast
9:53 AM 61.0 °F 55.9 °F 83% 29.96 in 10.0 mi North 17.3 mph - N/A   Overcast
10:12 AM 60.8 °F 55.4 °F 82% 29.95 in 10.0 mi North 19.6 mph - N/A   Overcast
10:53 AM 57.9 °F 55.0 °F 90% 29.99 in 10.0 mi North 23.0 mph 28.8 mph N/A   Overcast
11:39 AM 57.2 °F 55.4 °F 94% 29.98 in 2.5 mi North 20.7 mph 26.5 mph 0.00 in Rain Light Rain
11:50 AM 55.4 °F 53.6 °F 94% 29.98 in 2.5 mi North 19.6 mph 32.2 mph 0.00 in Rain Light Rain
11:53 AM 55.0 °F 54.0 °F 96% 30.01 in 3.0 mi North 20.7 mph - 0.00 in Rain Light Rain
12:26 PM 55.4 °F 51.8 °F 88% 29.98 in 10.0 mi North 24.2 mph 29.9 mph 0.00 in   Overcast
12:53 PM 55.0 °F 52.0 °F 89% 30.01 in 9.0 mi North 20.7 mph 27.6 mph 0.00 in   Overcast
1:29 PM 57.2 °F 50.0 °F 77% 29.98 in 10.0 mi North 18.4 mph - 0.00 in   Overcast
1:53 PM 55.9 °F 50.0 °F 80% 29.99 in 10.0 mi North 20.7 mph - 0.00 in   Overcast
2:53 PM 55.9 °F 48.0 °F 75% 29.99 in 10.0 mi North 19.6 mph 26.5 mph N/A   Overcast
3:53 PM 57.0 °F 48.0 °F 72% 29.98 in 10.0 mi North 19.6 mph 24.2 mph 0.00 in   Mostly Cloudy
4:06 PM 57.2 °F 48.2 °F 72% 29.97 in 10.0 mi North 19.6 mph - N/A   Overcast
4:53 PM 55.9 °F 48.0 °F 75% 30.00 in 10.0 mi North 16.1 mph - N/A   Overcast
5:42 PM 55.4 °F 48.2 °F 77% 29.96 in 10.0 mi NNE 19.6 mph - N/A   Overcast
5:53 PM 55.9 °F 48.0 °F 75% 29.99 in 10.0 mi North 17.3 mph 26.5 mph N/A   Overcast
6:21 PM 55.4 °F 48.2 °F 77% 29.98 in 10.0 mi NNE 18.4 mph 23.0 mph N/A   Overcast
6:53 PM 55.0 °F 48.0 °F 77% 30.00 in 10.0 mi NNE 18.4 mph 24.2 mph N/A   Overcast
7:09 PM 55.4 °F 46.4 °F 72% 29.99 in 10.0 mi NNE 15.0 mph - N/A   Overcast
7:36 PM 55.4 °F 46.4 °F 72% 30.00 in 10.0 mi North 16.1 mph - N/A   Overcast
7:53 PM 55.0 °F 46.9 °F 74% 30.02 in 10.0 mi NNE 16.1 mph - N/A   Overcast
8:00 PM 55.4 °F 46.4 °F 72% 30.00 in 10.0 mi NNE 16.1 mph - N/A   Overcast
8:53 PM 55.0 °F 46.9 °F 74% 30.03 in 10.0 mi North 17.3 mph - N/A   Overcast
9:53 PM 55.0 °F 46.9 °F 74% 30.01 in 10.0 mi NNE 16.1 mph - N/A   Overcast
10:53 PM 53.1 °F 48.0 °F 83% 30.01 in 10.0 mi NNE 16.1 mph - 0.00 in Rain Light Rain
11:53 PM 51.1 °F 50.0 °F 96% 30.01 in 4.0 mi NNE 15.0 mph - N/A Rain Rain